When you browse on this site, cookies collect data to enhance your experience and personalize the content and advertising you see.
Visit our Privacy Policy to learn more. By continuing to use the site, you agree to this use of cookies and data.
  • In Hungary
  • List of Countries
  • For 7 days
  • Water Temperature
  • Weather Map
  • News
  • Weather Widgets
  • user-avatar
    Login

    Hourly Weather Tulskiy

    Today, 22 October, Tuesday

    Time Temperature Precipitation Wind Pressure Humidity
    00:00 +13°C° 0 mm 1 mps 740 mmHg 78%
    01:00 +12°C° 0 mm 1 mps 740 mmHg 80%
    02:00 +12°C° 0 mm 1 mps 740 mmHg 82%
    03:00 +12°C° 0 mm 1 mps 740 mmHg 84%
    04:00 +12°C° 0 mm 1 mps 740 mmHg 85%
    05:00 +11°C° 0 mm 1 mps 741 mmHg 85%
    06:00 +10°C° 0 mm 0 mps 741 mmHg 86%
    07:00 +12°C° 0 mm 0 mps 741 mmHg 79%
    08:00 +14°C° 0 mm 0 mps 741 mmHg 73%
    09:00 +16°C° 0 mm 0 mps 741 mmHg 66%
    10:00 +19°C° 0 mm 1 mps 741 mmHg 61%
    11:00 +20°C° 0 mm 1 mps 741 mmHg 57%
    12:00 +22°C° 0 mm 1 mps 741 mmHg 52%
    13:00 +21°C° 0 mm 2 mps 741 mmHg 51%
    14:00 +21°C° 0 mm 2 mps 741 mmHg 49%
    15:00 +23°C° 0 mm 2 mps 741 mmHg 48%
    16:00 +20°C° 0 mm 2 mps 741 mmHg 54%
    17:00 +18°C° 0 mm 2 mps 741 mmHg 61%
    18:00 +16°C° 0 mm 1 mps 741 mmHg 67%
    19:00 +15°C° 0 mm 1 mps 741 mmHg 70%
    20:00 +15°C° 0 mm 1 mps 741 mmHg 72%
    21:00 +14°C° 0 mm 1 mps 740 mmHg 74%
    22:00 +14°C° 0 mm 1 mps 740 mmHg 75%
    23:00 +13°C° 0 mm 1 mps 740 mmHg 75%

    Tomorrow, 23 October, Wednesday

    Time Temperature Precipitation Wind Pressure Humidity
    00:00 +13°C° 0 mm 1 mps 740 mmHg 76%
    01:00 +13°C° 0 mm 1 mps 740 mmHg 77%
    02:00 +12°C° 0 mm 1 mps 741 mmHg 79%
    03:00 +12°C° 0 mm 1 mps 741 mmHg 80%
    04:00 +12°C° 0 mm 1 mps 741 mmHg 79%
    05:00 +12°C° 0 mm 1 mps 741 mmHg 78%
    06:00 +12°C° 0 mm 1 mps 741 mmHg 77%
    07:00 +13°C° 0 mm 1 mps 741 mmHg 72%
    08:00 +15°C° 0 mm 1 mps 741 mmHg 67%
    09:00 +16°C° 0 mm 1 mps 741 mmHg 62%
    10:00 +19°C° 0 mm 1 mps 741 mmHg 56%
    11:00 +20°C° 0 mm 1 mps 741 mmHg 51%
    12:00 +21°C° 0 mm 2 mps 741 mmHg 45%
    13:00 +21°C° 0 mm 2 mps 741 mmHg 43%
    14:00 +21°C° 0 mm 2 mps 741 mmHg 42%
    15:00 +23°C° 0 mm 2 mps 740 mmHg 40%
    16:00 +20°C° 0 mm 2 mps 740 mmHg 46%
    17:00 +18°C° 0 mm 2 mps 740 mmHg 52%
    18:00 +16°C° 0 mm 2 mps 740 mmHg 58%
    19:00 +15°C° 0 mm 2 mps 740 mmHg 62%
    20:00 +14°C° 0 mm 2 mps 740 mmHg 66%
    21:00 +14°C° 0 mm 2 mps 740 mmHg 69%
    22:00 +13°C° 0 mm 2 mps 740 mmHg 70%
    23:00 +13°C° 0 mm 2 mps 740 mmHg 70%

    Day after tomorrow, 24 October, Thursday

    Time Temperature Precipitation Wind Pressure Humidity
    00:00 +13°C° 0 mm 1 mps 740 mmHg 71%
    01:00 +12°C° 0 mm 1 mps 740 mmHg 70%
    02:00 +12°C° 0 mm 1 mps 740 mmHg 70%
    03:00 +12°C° 0 mm 1 mps 740 mmHg 69%
    04:00 +12°C° 0 mm 1 mps 740 mmHg 69%
    05:00 +11°C° 0 mm 1 mps 740 mmHg 69%
    06:00 +11°C° 0 mm 1 mps 740 mmHg 69%
    07:00 +13°C° 0 mm 1 mps 740 mmHg 64%
    08:00 +13°C° 0 mm 0 mps 740 mmHg 59%
    09:00 +15°C° 0 mm 0 mps 740 mmHg 54%
    10:00 +17°C° 0 mm 0 mps 740 mmHg 49%
    11:00 +20°C° 0 mm 1 mps 740 mmHg 44%
    12:00 +22°C° 0 mm 1 mps 740 mmHg 39%
    13:00 +22°C° 0 mm 1 mps 740 mmHg 38%
    14:00 +23°C° 0 mm 1 mps 739 mmHg 37%
    15:00 +23°C° 0 mm 1 mps 739 mmHg 36%
    16:00 +21°C° 0 mm 1 mps 739 mmHg 42%
    17:00 +18°C° 0 mm 1 mps 739 mmHg 48%
    18:00 +14°C° 0 mm 0 mps 738 mmHg 55%
    19:00 +15°C° 0 mm 1 mps 739 mmHg 57%
    20:00 +15°C° 0 mm 1 mps 739 mmHg 59%
    21:00 +14°C° 0 mm 1 mps 739 mmHg 60%
    22:00 +14°C° 0 mm 1 mps 739 mmHg 62%
    23:00 +13°C° 0 mm 1 mps 738 mmHg 63%

    25 October, Friday

    Time Temperature Precipitation Wind Pressure Humidity
    00:00 +13°C° 0 mm 1 mps 738 mmHg 64%
    01:00 +13°C° 0 mm 1 mps 738 mmHg 65%
    02:00 +12°C° 0 mm 1 mps 738 mmHg 66%
    03:00 +12°C° 0 mm 1 mps 738 mmHg 67%
    04:00 +12°C° 0 mm 1 mps 738 mmHg 68%
    05:00 +12°C° 0 mm 1 mps 738 mmHg 69%
    06:00 +12°C° 0 mm 1 mps 738 mmHg 70%
    07:00 +13°C° 0 mm 1 mps 738 mmHg 65%
    08:00 +14°C° 0 mm 0 mps 738 mmHg 59%
    09:00 +16°C° 0 mm 0 mps 738 mmHg 54%
    10:00 +19°C° 0 mm 1 mps 738 mmHg 50%
    11:00 +21°C° 0 mm 1 mps 738 mmHg 45%
    12:00 +22°C° 0 mm 1 mps 738 mmHg 40%
    13:00 +22°C° 0 mm 1 mps 738 mmHg 41%
    14:00 +22°C° 0 mm 1 mps 738 mmHg 41%
    15:00 +21°C° 0 mm 2 mps 738 mmHg 41%
    16:00 +20°C° 0 mm 1 mps 738 mmHg 46%
    17:00 +19°C° 0 mm 1 mps 738 mmHg 51%
    18:00 +16°C° 0 mm 1 mps 738 mmHg 56%
    19:00 +15°C° 0 mm 1 mps 738 mmHg 58%
    20:00 +15°C° 0 mm 1 mps 738 mmHg 60%
    21:00 +14°C° 0 mm 1 mps 738 mmHg 62%
    22:00 +14°C° 0 mm 1 mps 738 mmHg 64%
    23:00 +14°C° 0 mm 1 mps 738 mmHg 66%

    26 October, Saturday

    Time Temperature Precipitation Wind Pressure Humidity
    00:00 +13°C° 0 mm 1 mps 738 mmHg 67%
    01:00 +13°C° 0 mm 1 mps 738 mmHg 69%
    02:00 +13°C° 0 mm 1 mps 738 mmHg 71%
    03:00 +12°C° 0 mm 1 mps 739 mmHg 73%
    04:00 +12°C° 0 mm 1 mps 739 mmHg 74%
    05:00 +12°C° 0 mm 1 mps 739 mmHg 76%
    06:00 +12°C° 0 mm 1 mps 739 mmHg 77%
    07:00 +13°C° 0 mm 1 mps 739 mmHg 72%
    08:00 +15°C° 0 mm 1 mps 739 mmHg 67%
    09:00 +15°C° 0 mm 0 mps 739 mmHg 62%
    10:00 +19°C° 0 mm 1 mps 739 mmHg 57%
    11:00 +20°C° 0 mm 1 mps 740 mmHg 52%
    12:00 +22°C° 0 mm 1 mps 740 mmHg 46%
    13:00 +22°C° 0 mm 1 mps 739 mmHg 46%
    14:00 +22°C° 0 mm 1 mps 739 mmHg 46%
    15:00 +22°C° 0 mm 1 mps 739 mmHg 45%
    16:00 +20°C° 0 mm 1 mps 739 mmHg 51%
    17:00 +18°C° 0 mm 1 mps 739 mmHg 56%
    18:00 +16°C° 0 mm 1 mps 739 mmHg 62%
    19:00 +15°C° 0 mm 1 mps 739 mmHg 65%
    20:00 +14°C° 0 mm 1 mps 739 mmHg 69%
    21:00 +14°C° 0 mm 1 mps 738 mmHg 72%
    22:00 +13°C° 0 mm 1 mps 738 mmHg 73%
    23:00 +13°C° 0 mm 1 mps 738 mmHg 75%

    27 October, Sunday

    Time Temperature Precipitation Wind Pressure Humidity
    00:00 +13°C° 0 mm 1 mps 738 mmHg 76%
    01:00 +13°C° 0 mm 1 mps 738 mmHg 77%
    02:00 +12°C° 0 mm 1 mps 738 mmHg 78%
    03:00 +12°C° 0 mm 1 mps 738 mmHg 80%
    04:00 +12°C° 0 mm 1 mps 738 mmHg 80%
    05:00 +12°C° 0 mm 1 mps 738 mmHg 81%
    06:00 +12°C° 0 mm 1 mps 738 mmHg 81%
    07:00 +14°C° 0 mm 1 mps 738 mmHg 75%
    08:00 +15°C° 0 mm 1 mps 738 mmHg 68%
    09:00 +18°C° 0 mm 1 mps 739 mmHg 62%
    10:00 +20°C° 0 mm 1 mps 739 mmHg 58%
    11:00 +21°C° 0 mm 1 mps 738 mmHg 53%
    12:00 +23°C° 0 mm 1 mps 738 mmHg 49%
    13:00 +23°C° 0 mm 1 mps 738 mmHg 49%
    14:00 +23°C° 0 mm 1 mps 738 mmHg 49%
    15:00 +23°C° 0 mm 1 mps 737 mmHg 49%
    16:00 +21°C° 0 mm 1 mps 737 mmHg 57%
    17:00 +19°C° 0 mm 1 mps 737 mmHg 64%
    18:00 +16°C° 0 mm 1 mps 737 mmHg 72%
    19:00 +16°C° 0 mm 1 mps 737 mmHg 74%
    20:00 +15°C° 0 mm 1 mps 737 mmHg 76%
    21:00 +15°C° 0 mm 1 mps 737 mmHg 77%
    22:00 +15°C° 0 mm 1 mps 737 mmHg 79%
    23:00 +14°C° 0 mm 1 mps 737 mmHg 81%

    28 October, Monday

    Time Temperature Precipitation Wind Pressure Humidity
    00:00 +14°C° 0 mm 1 mps 737 mmHg 82%
    01:00 +13°C° 0 mm 1 mps 736 mmHg 84%
    02:00 +13°C° 0 mm 1 mps 736 mmHg 85%
    03:00 +13°C° 0 mm 1 mps 736 mmHg 86%
    04:00 +13°C° 0 mm 1 mps 736 mmHg 87%
    05:00 +12°C° 0 mm 1 mps 736 mmHg 88%
    06:00 +12°C° 0 mm 1 mps 736 mmHg 88%
    07:00 +14°C° 0 mm 1 mps 737 mmHg 82%
    08:00 +15°C° 0 mm 1 mps 737 mmHg 76%
    09:00 +16°C° 0 mm 1 mps 737 mmHg 70%
    10:00 +19°C° 0 mm 1 mps 737 mmHg 65%
    11:00 +20°C° 0 mm 1 mps 737 mmHg 61%
    12:00 +20°C° 0 mm 2 mps 737 mmHg 56%
    13:00 +20°C° 0 mm 2 mps 737 mmHg 55%
    14:00 +20°C° 0 mm 2 mps 737 mmHg 55%
    15:00 +20°C° 0 mm 3 mps 737 mmHg 54%
    16:00 +19°C° 0 mm 2 mps 737 mmHg 60%
    17:00 +17°C° 0 mm 2 mps 737 mmHg 65%
    18:00 +15°C° 0 mm 1 mps 737 mmHg 71%
    19:00 +15°C° 0 mm 1 mps 737 mmHg 73%
    20:00 +14°C° 0 mm 1 mps 737 mmHg 76%
    21:00 +14°C° 0 mm 1 mps 737 mmHg 78%
    22:00 +13°C° 0 mm 1 mps 737 mmHg 80%
    23:00 +13°C° 0 mm 1 mps 737 mmHg 82%
    Show more